Time,TemperatureF,DewpointF,PressureIn,WindDirection,WindDirectionDegrees,WindSpeedMPH,WindSpeedGustMPH,Humidity,HourlyPrecipIn,Conditions,Clouds,dailyrainin,SoftwareType,DateUTC
2013-02-05 00:02:00,44.0,43.0,30.06,East,98,0.0,0.0,95,0.00,,,0.00,,2013-02-05 05:02:00,
2013-02-05 00:11:00,44.0,43.0,30.06,East,98,0.0,0.0,95,0.00,,,0.00,,2013-02-05 05:11:00,
2013-02-05 00:22:00,42.0,40.0,30.06,East,98,0.0,0.0,94,0.00,,,0.00,,2013-02-05 05:22:00,
2013-02-05 00:52:00,42.0,41.0,30.06,East,98,0.0,0.0,96,0.00,,,0.00,,2013-02-05 05:52:00,
2013-02-05 01:02:00,43.0,42.0,30.06,East,98,0.0,0.0,96,0.00,,,0.00,,2013-02-05 06:02:00,
2013-02-05 01:11:00,43.0,42.0,30.06,East,98,0.0,0.0,96,0.00,,,0.00,,2013-02-05 06:11:00,
2013-02-05 01:21:00,42.0,41.0,30.06,East,98,0.0,0.0,96,0.00,,,0.00,,2013-02-05 06:21:00,
2013-02-05 01:32:00,42.0,41.0,30.07,SSE,155,1.0,3.0,96,0.00,,,0.00,,2013-02-05 06:32:00,
2013-02-05 01:42:00,42.0,41.0,30.07,SSE,155,1.0,3.0,96,0.00,,,0.00,,2013-02-05 06:42:00,
2013-02-05 01:52:00,43.0,42.0,30.06,SE,146,0.0,0.0,96,0.00,,,0.00,,2013-02-05 06:52:00,
2013-02-05 02:01:00,43.0,42.0,30.06,SE,146,0.0,0.0,96,0.00,,,0.00,,2013-02-05 07:01:00,
2013-02-05 02:11:00,43.0,42.0,30.06,SE,146,0.0,0.0,96,0.00,,,0.00,,2013-02-05 07:11:00,
2013-02-05 02:22:00,43.0,42.0,30.05,SE,146,0.0,0.0,96,0.00,,,0.00,,2013-02-05 07:22:00,
2013-02-05 02:32:00,43.0,42.0,30.04,SE,146,0.0,0.0,96,0.00,,,0.00,,2013-02-05 07:32:00,
2013-02-05 02:42:00,43.0,42.0,30.04,SE,146,0.0,0.0,96,0.00,,,0.00,,2013-02-05 07:42:00,
2013-02-05 02:52:00,43.0,42.0,30.04,SE,146,0.0,0.0,96,0.00,,,0.00,,2013-02-05 07:52:00,
2013-02-05 03:01:00,42.0,41.0,30.03,SE,146,0.0,0.0,96,0.00,,,0.00,,2013-02-05 08:01:00,
2013-02-05 03:11:00,42.0,41.0,30.03,SE,146,0.0,0.0,96,0.00,,,0.00,,2013-02-05 08:11:00,
2013-02-05 03:21:00,42.0,41.0,30.03,SE,146,0.0,0.0,96,0.00,,,0.00,,2013-02-05 08:21:00,
2013-02-05 03:31:00,41.0,40.0,30.03,SE,146,0.0,0.0,96,0.00,,,0.00,,2013-02-05 08:31:00,
2013-02-05 03:42:00,41.0,40.0,30.03,SE,146,0.0,0.0,96,0.00,,,0.00,,2013-02-05 08:42:00,
2013-02-05 03:52:00,41.0,40.0,30.03,SE,146,0.0,0.0,96,0.00,,,0.00,,2013-02-05 08:52:00,
2013-02-05 04:02:00,41.0,40.0,30.02,SE,146,0.0,0.0,96,0.00,,,0.00,,2013-02-05 09:02:00,
2013-02-05 04:11:00,41.0,40.0,30.02,SE,146,0.0,0.0,96,0.00,,,0.00,,2013-02-05 09:11:00,
2013-02-05 04:21:00,41.0,40.0,30.02,SE,146,0.0,0.0,96,0.00,,,0.00,,2013-02-05 09:21:00,
2013-02-05 04:32:00,40.0,39.0,30.02,SE,146,0.0,0.0,96,0.00,,,0.00,,2013-02-05 09:32:00,
2013-02-05 04:42:00,40.0,39.0,30.02,SE,146,0.0,0.0,96,0.00,,,0.00,,2013-02-05 09:42:00,
2013-02-05 04:51:00,40.0,39.0,30.01,SE,146,0.0,0.0,96,0.00,,,0.00,,2013-02-05 09:51:00,
2013-02-05 05:02:00,40.0,39.0,30.00,SE,146,0.0,0.0,96,0.00,,,0.00,,2013-02-05 10:02:00,
2013-02-05 05:11:00,40.0,39.0,30.00,SE,146,0.0,0.0,96,0.00,,,0.00,,2013-02-05 10:11:00,
2013-02-05 05:21:00,40.0,39.0,30.00,SE,146,0.0,0.0,96,0.00,,,0.00,,2013-02-05 10:21:00,
2013-02-05 05:32:00,40.0,39.0,30.01,SE,146,0.0,0.0,97,0.00,,,0.00,,2013-02-05 10:32:00,
2013-02-05 05:42:00,40.0,39.0,30.01,SE,146,0.0,0.0,97,0.00,,,0.00,,2013-02-05 10:42:00,
2013-02-05 05:52:00,39.0,38.0,30.01,SE,146,0.0,0.0,97,0.00,,,0.00,,2013-02-05 10:52:00,
2013-02-05 06:01:00,40.0,39.0,30.01,SE,146,0.0,0.0,97,0.00,,,0.00,,2013-02-05 11:01:00,
2013-02-05 06:11:00,40.0,39.0,30.01,SE,146,0.0,0.0,97,0.00,,,0.00,,2013-02-05 11:11:00,
2013-02-05 06:22:00,41.0,40.0,30.01,SE,146,0.0,0.0,97,0.00,,,0.00,,2013-02-05 11:22:00,
2013-02-05 06:32:00,43.0,42.0,30.02,SE,146,0.0,0.0,98,0.00,,,0.00,,2013-02-05 11:32:00,
2013-02-05 06:42:00,43.0,42.0,30.02,SE,146,0.0,0.0,98,0.00,,,0.00,,2013-02-05 11:42:00,
2013-02-05 06:52:00,44.0,43.0,30.03,SSE,165,0.0,0.0,98,0.00,,,0.00,,2013-02-05 11:52:00,
2013-02-05 07:02:00,44.0,43.0,30.03,SSE,165,0.0,0.0,97,0.00,,,0.00,,2013-02-05 12:02:00,
2013-02-05 07:12:00,44.0,43.0,30.03,SSE,165,0.0,0.0,97,0.00,,,0.00,,2013-02-05 12:12:00,
2013-02-05 07:22:00,44.0,43.0,30.04,SSE,165,0.0,0.0,96,0.00,,,0.00,,2013-02-05 12:22:00,
2013-02-05 07:32:00,43.0,42.0,30.05,SSE,165,0.0,0.0,96,0.00,,,0.00,,2013-02-05 12:32:00,
2013-02-05 07:42:00,43.0,42.0,30.05,SSE,165,0.0,0.0,96,0.00,,,0.00,,2013-02-05 12:42:00,
2013-02-05 07:52:00,43.0,42.0,30.06,SSE,165,0.0,0.0,96,0.00,,,0.00,,2013-02-05 12:52:00,
2013-02-05 08:02:00,43.0,42.0,30.06,SSE,165,0.0,0.0,96,0.00,,,0.00,,2013-02-05 13:02:00,
2013-02-05 08:12:00,46.0,45.0,30.07,NW,320,1.0,2.0,97,0.00,,,0.00,,2013-02-05 13:12:00,
2013-02-05 08:22:00,46.0,45.0,30.07,NW,320,1.0,2.0,97,0.00,,,0.00,,2013-02-05 13:22:00,
2013-02-05 08:32:00,48.0,46.0,30.07,NW,309,0.0,1.0,92,0.00,,,0.00,,2013-02-05 13:32:00,
2013-02-05 08:42:00,48.0,46.0,30.07,NW,309,0.0,1.0,92,0.00,,,0.00,,2013-02-05 13:42:00,
2013-02-05 08:52:00,49.0,46.0,30.07,NW,311,0.0,0.0,91,0.00,,,0.00,,2013-02-05 13:52:00,
2013-02-05 09:01:00,51.0,47.0,30.08,NW,309,0.0,0.0,85,0.00,,,0.00,,2013-02-05 14:01:00,
2013-02-05 09:12:00,51.0,47.0,30.08,NW,309,0.0,0.0,85,0.00,,,0.00,,2013-02-05 14:12:00,
2013-02-05 09:21:00,53.0,48.0,30.09,NNW,333,0.0,0.0,82,0.00,,,0.00,,2013-02-05 14:21:00,
2013-02-05 09:32:00,55.0,49.0,30.09,NNW,336,0.0,0.0,80,0.00,,,0.00,,2013-02-05 14:32:00,
2013-02-05 09:42:00,55.0,49.0,30.09,NNW,336,0.0,0.0,80,0.00,,,0.00,,2013-02-05 14:42:00,
2013-02-05 09:52:00,58.0,50.0,30.09,WNW,299,0.0,5.0,75,0.00,,,0.00,,2013-02-05 14:52:00,
2013-02-05 10:02:00,60.0,50.0,30.10,West,261,2.0,3.0,69,0.00,,,0.00,,2013-02-05 15:02:00,
2013-02-05 10:21:00,62.0,50.0,30.09,West,262,1.0,3.0,65,0.00,,,0.00,,2013-02-05 15:21:00,
2013-02-05 10:32:00,65.0,48.0,30.10,West,263,1.0,6.0,54,0.00,,,0.00,,2013-02-05 15:32:00,
2013-02-05 10:52:00,66.0,47.0,30.10,West,263,3.0,5.0,50,0.00,,,0.00,,2013-02-05 15:52:00,
2013-02-05 11:01:00,67.0,48.0,30.09,NW,307,3.0,5.0,50,0.00,,,0.00,,2013-02-05 16:01:00,
2013-02-05 11:11:00,67.0,48.0,30.09,NW,307,3.0,5.0,50,0.00,,,0.00,,2013-02-05 16:11:00,
2013-02-05 11:22:00,68.0,50.0,30.09,NW,306,5.0,7.0,52,0.00,,,0.00,,2013-02-05 16:22:00,
2013-02-05 11:32:00,69.0,51.0,30.08,West,274,3.0,5.0,53,0.00,,,0.00,,2013-02-05 16:32:00,
2013-02-05 11:42:00,69.0,51.0,30.08,West,274,3.0,5.0,53,0.00,,,0.00,,2013-02-05 16:42:00,
2013-02-05 11:52:00,70.0,52.0,30.08,North,0,0.0,7.0,53,0.00,,,0.00,,2013-02-05 16:52:00,
2013-02-05 12:01:00,70.0,52.0,30.08,WNW,288,2.0,6.0,52,0.00,,,0.00,,2013-02-05 17:01:00,
2013-02-05 12:12:00,70.0,52.0,30.08,WNW,288,2.0,6.0,52,0.00,,,0.00,,2013-02-05 17:12:00,
2013-02-05 12:22:00,72.0,52.0,30.07,SW,217,1.0,5.0,50,0.00,,,0.00,,2013-02-05 17:22:00,
2013-02-05 12:32:00,72.0,52.0,30.07,SSW,211,1.0,6.0,50,0.00,,,0.00,,2013-02-05 17:32:00,
2013-02-05 12:42:00,72.0,52.0,30.07,SSW,211,1.0,6.0,50,0.00,,,0.00,,2013-02-05 17:42:00,
2013-02-05 12:52:00,72.0,52.0,30.06,WNW,284,4.0,9.0,49,0.00,,,0.00,,2013-02-05 17:52:00,
2013-02-05 13:02:00,73.0,53.0,30.06,WNW,302,2.0,6.0,49,0.00,,,0.00,,2013-02-05 18:02:00,
2013-02-05 13:11:00,73.0,53.0,30.06,WNW,302,2.0,6.0,49,0.00,,,0.00,,2013-02-05 18:11:00,
2013-02-05 13:22:00,73.0,53.0,30.06,WNW,302,2.0,6.0,49,0.00,,,0.00,,2013-02-05 18:22:00,
2013-02-05 13:32:00,74.0,54.0,30.04,WSW,258,2.0,7.0,49,0.00,,,0.00,,2013-02-05 18:32:00,
2013-02-05 13:42:00,74.0,54.0,30.04,WSW,258,2.0,7.0,49,0.00,,,0.00,,2013-02-05 18:42:00,
2013-02-05 13:52:00,75.0,53.0,30.03,SSW,213,0.0,3.0,47,0.00,,,0.00,,2013-02-05 18:52:00,
2013-02-05 14:02:00,74.0,52.0,30.03,SSW,213,2.0,6.0,46,0.00,,,0.00,,2013-02-05 19:02:00,
2013-02-05 14:11:00,74.0,52.0,30.03,SSW,213,2.0,6.0,46,0.00,,,0.00,,2013-02-05 19:11:00,
2013-02-05 14:22:00,75.0,53.0,30.02,NW,318,3.0,7.0,47,0.00,,,0.00,,2013-02-05 19:22:00,
2013-02-05 14:32:00,74.0,52.0,30.02,NW,305,1.0,5.0,47,0.00,,,0.00,,2013-02-05 19:32:00,
2013-02-05 14:42:00,74.0,52.0,30.02,NW,305,1.0,5.0,47,0.00,,,0.00,,2013-02-05 19:42:00,
2013-02-05 14:52:00,75.0,53.0,30.01,West,266,0.0,3.0,46,0.00,,,0.00,,2013-02-05 19:52:00,
2013-02-05 15:02:00,76.0,51.0,30.01,WSW,254,2.0,10.0,42,0.00,,,0.00,,2013-02-05 20:02:00,
2013-02-05 15:11:00,76.0,51.0,30.01,WSW,254,2.0,10.0,42,0.00,,,0.00,,2013-02-05 20:11:00,
2013-02-05 15:21:00,76.0,52.0,30.01,SE,128,0.0,2.0,44,0.00,,,0.00,,2013-02-05 20:21:00,
2013-02-05 15:32:00,76.0,52.0,30.00,WSW,257,1.0,6.0,44,0.00,,,0.00,,2013-02-05 20:32:00,
2013-02-05 15:42:00,76.0,52.0,30.00,WSW,257,1.0,6.0,44,0.00,,,0.00,,2013-02-05 20:42:00,
2013-02-05 15:52:00,76.0,52.0,30.00,SW,225,3.0,7.0,43,0.00,,,0.00,,2013-02-05 20:52:00,
2013-02-05 16:02:00,76.0,52.0,30.00,West,278,0.0,5.0,43,0.00,,,0.00,,2013-02-05 21:02:00,
2013-02-05 16:11:00,76.0,52.0,30.00,West,278,0.0,5.0,43,0.00,,,0.00,,2013-02-05 21:11:00,
2013-02-05 16:22:00,76.0,51.0,30.00,WSW,257,2.0,6.0,42,0.00,,,0.00,,2013-02-05 21:22:00,
2013-02-05 16:32:00,76.0,52.0,30.00,SW,227,1.0,3.0,43,0.00,,,0.00,,2013-02-05 21:32:00,
2013-02-05 16:42:00,76.0,52.0,30.00,SW,227,1.0,3.0,43,0.00,,,0.00,,2013-02-05 21:42:00,
2013-02-05 16:52:00,77.0,52.0,30.00,West,277,0.0,3.0,42,0.00,,,0.00,,2013-02-05 21:52:00,
2013-02-05 17:01:00,77.0,54.0,30.00,East,94,1.0,5.0,45,0.00,,,0.00,,2013-02-05 22:01:00,
2013-02-05 17:11:00,77.0,54.0,30.00,East,94,1.0,5.0,45,0.00,,,0.00,,2013-02-05 22:11:00,
2013-02-05 17:22:00,73.0,55.0,30.00,East,87,2.0,6.0,54,0.00,,,0.00,,2013-02-05 22:22:00,
2013-02-05 17:32:00,70.0,55.0,30.01,ESE,111,3.0,6.0,60,0.00,,,0.00,,2013-02-05 22:32:00,
2013-02-05 17:42:00,70.0,55.0,30.01,ESE,111,3.0,6.0,60,0.00,,,0.00,,2013-02-05 22:42:00,
2013-02-05 17:51:00,70.0,56.0,30.00,East,96,1.0,7.0,61,0.00,,,0.00,,2013-02-05 22:51:00,
2013-02-05 18:02:00,69.0,56.0,30.01,East,90,0.0,3.0,63,0.00,,,0.00,,2013-02-05 23:02:00,
2013-02-05 18:11:00,69.0,56.0,30.01,East,90,0.0,3.0,63,0.00,,,0.00,,2013-02-05 23:11:00,
2013-02-05 18:22:00,67.0,55.0,30.00,East,98,0.0,0.0,66,0.00,,,0.00,,2013-02-05 23:22:00,
2013-02-05 18:32:00,66.0,56.0,30.00,East,98,0.0,0.0,70,0.00,,,0.00,,2013-02-05 23:32:00,
2013-02-05 18:42:00,66.0,56.0,30.00,East,98,0.0,0.0,70,0.00,,,0.00,,2013-02-05 23:42:00,
2013-02-05 18:53:00,64.0,56.0,30.00,East,98,0.0,0.0,75,0.00,,,0.00,,2013-02-05 23:53:00,
2013-02-05 19:02:00,63.0,56.0,30.00,East,98,0.0,0.0,77,0.00,,,0.00,,2013-02-06 00:02:00,
2013-02-05 19:12:00,63.0,56.0,30.00,East,98,0.0,0.0,77,0.00,,,0.00,,2013-02-06 00:12:00,
2013-02-05 19:22:00,62.0,55.0,30.00,East,98,0.0,0.0,79,0.00,,,0.00,,2013-02-06 00:22:00,
2013-02-05 19:32:00,60.0,55.0,30.00,East,98,0.0,0.0,84,0.00,,,0.00,,2013-02-06 00:32:00,
2013-02-05 19:52:00,59.0,54.0,30.01,East,98,0.0,0.0,85,0.00,,,0.00,,2013-02-06 00:52:00,
2013-02-05 20:02:00,57.0,53.0,30.02,East,98,0.0,0.0,87,0.00,,,0.00,,2013-02-06 01:02:00,
2013-02-05 20:22:00,57.0,53.0,30.02,East,98,0.0,0.0,87,0.00,,,0.00,,2013-02-06 01:22:00,
2013-02-05 20:32:00,56.0,53.0,30.02,East,98,0.0,0.0,90,0.00,,,0.00,,2013-02-06 01:32:00,
2013-02-05 20:52:00,55.0,52.0,30.03,East,98,0.0,0.0,91,0.00,,,0.00,,2013-02-06 01:52:00,
2013-02-05 21:02:00,55.0,53.0,30.03,East,98,0.0,0.0,92,0.00,,,0.00,,2013-02-06 02:02:00,
2013-02-05 21:22:00,54.0,51.0,30.04,East,98,0.0,0.0,91,0.00,,,0.00,,2013-02-06 02:22:00,
2013-02-05 21:32:00,54.0,52.0,30.04,East,98,0.0,0.0,92,0.00,,,0.00,,2013-02-06 02:32:00,
2013-02-05 21:53:00,53.0,51.0,30.05,East,98,0.0,0.0,93,0.00,,,0.00,,2013-02-06 02:53:00,
2013-02-05 22:03:00,53.0,51.0,30.05,East,98,0.0,0.0,94,0.00,,,0.00,,2013-02-06 03:03:00,
2013-02-05 22:22:00,53.0,51.0,30.04,East,98,0.0,0.0,93,0.00,,,0.00,,2013-02-06 03:22:00,
2013-02-05 22:32:00,53.0,51.0,30.04,East,98,0.0,0.0,94,0.00,,,0.00,,2013-02-06 03:32:00,
2013-02-05 22:42:00,53.0,51.0,30.04,East,98,0.0,0.0,94,0.00,,,0.00,,2013-02-06 03:42:00,
2013-02-05 22:52:00,53.0,51.0,30.04,East,98,0.0,0.0,94,0.00,,,0.00,,2013-02-06 03:52:00,
2013-02-05 23:02:00,53.0,51.0,30.05,East,98,0.0,0.0,94,0.00,,,0.00,,2013-02-06 04:02:00,
2013-02-05 23:11:00,53.0,51.0,30.05,East,98,0.0,0.0,94,0.00,,,0.00,,2013-02-06 04:11:00,
2013-02-05 23:22:00,53.0,52.0,30.05,East,98,0.0,0.0,96,0.00,,,0.00,,2013-02-06 04:22:00,
2013-02-05 23:32:00,53.0,52.0,30.04,East,98,0.0,0.0,95,0.00,,,0.00,,2013-02-06 04:32:00,
2013-02-05 23:42:00,53.0,52.0,30.04,East,98,0.0,0.0,95,0.00,,,0.00,,2013-02-06 04:42:00,
2013-02-05 23:52:00,52.0,51.0,30.05,East,98,0.0,0.0,95,0.00,,,0.00,,2013-02-06 04:52:00,